Regional Weather Roundup
Issued by NWS Sioux Falls, SD

Home | Current Version | Previous Version | Text Only | Print | Product List | Glossary Off
Versions: 1 2 3 4 5 6 7 8 9 10 11 12 13 14 15 16 17 18 19 20 21 22 23 24 25 26 27 28 29 30 31 32 33 34 35 36 37 38 39 40 41 42 43 44 45 46 47 48 49 50

000
ASUS43 KFSD 181510
RWRFSD

WEATHER ROUNDUP FOR SE SOUTH DAKOTA/SW MINNESOTA/NW IOWA
NATIONAL WEATHER SERVICE SIOUX FALLS SD
900 AM CST MON DEC 18 2017

NOTE: "FAIR" INDICATES FEW OR NO CLOUDS BELOW 12,000 FEET WITH NO
SIGNIFICANT WEATHER AND OR OBSTRUCTIONS TO VISIBILITY.


SDZ038>040-050-052>070-181600-
SOUTHEAST SOUTH DAKOTA

CITY           SKY/WX    TMP DP  RH WIND       PRES   REMARKS
BROOKINGS      CLOUDY    28  25  88 SW7       29.76S WCI  21
CHAMBERLAIN    CLEAR     32  26  78 SW10      29.79F WCI  24
HURON          CLOUDY    28  24  85 SW12      29.77S WCI  18
MADISON        FAIR      27  27 100 SW12      29.77S WCI  16
MITCHELL       CLOUDY    32  25  75 SW10      29.81S WCI  24
SIOUX FALLS    CLOUDY    29  26  89 SW6       29.81S WCI  23
WINNER         FAIR      32  22  66 SW12      29.81F WCI  23
YANKTON        CLOUDY    33  27  78 SW8       29.85S WCI  26
$$

MNZ071-072-080-081-089-090-097-098-181600-
SOUTHWEST MINNESOTA

CITY           SKY/WX    TMP DP  RH WIND       PRES   REMARKS
FAIRMONT       CLOUDY    28  24  85 SW12      29.83F WCI  18
JACKSON        CLOUDY    27  23  86 SW13      29.81F WCI  16
LUVERNE        CLOUDY    25  21  86 S3        29.82S
MARSHALL       PTCLDY    32  27  81 SW16      29.76S WCI  21
MONTEVIDEO     CLOUDY    28  27  93 W8        29.73F WCI  20
PIPESTONE      CLOUDY    27  25  93 SW7       29.78S WCI  19
REDWOOD FALLS  CLOUDY    30  26  85 SW13      29.76F WCI  20
TRACY          CLOUDY    30  28  93 SW14      29.77S WCI  20
WINDOM           N/A     27  16  63 SW12      29.79S WCI  16
WORTHINGTON    CLOUDY    27  25  92 SW13      29.80F WCI  16
$$

IAZ001>003-012>014-020>022-031-032-NEZ013-014-SDZ071-181600-
NORTHWEST IOWA

CITY           SKY/WX    TMP DP  RH WIND       PRES   REMARKS
CHEROKEE       CLOUDY    27  27 100 S5        29.86S FOG     WCI  21
DENISON        CLOUDY    28  28 100 SW7       29.91S FOG     WCI  21
ESTHERVILLE    CLOUDY    21  21 100 S8        29.83S FOG     WCI  11
LE MARS        CLOUDY    25  23  93 S8        29.85F FOG     WCI  16
ORANGE CITY    CLOUDY    27  27 100 SW7       29.84S FOG     WCI  19
SHELDON        CLOUDY    27  25  93 SW9       29.82S FOG     WCI  17
SIOUX CITY     CLOUDY    22  21  96 SE6       29.88S FOG     WCI  14
SPENCER        CLOUDY    26  24  92 SW7       29.84F WCI  18
STORM LAKE     CLOUDY    28  28 100 SW15      29.85S FOG     WCI  17
$$

ABBREVIATIONS USED IN REMARKS
   TC - TEMPERATURE IN CELSIUS
  WCI - WIND CHILL INDEX
   HX - HEAT INDEX
  VSB - VISIBILITY





USA.gov is the U.S. government's official web portal to all federal, state and local government web resources and services.